METAR AND TAF INFORMATION
METAR FOR LIME
ADDS - METARS form results

(2240 UTC 23 February 2019)
Data provider http://aviationweather.gov/metar/data/
 
METAR text: LIME 232220Z 02004KT CAVOK 01/M04 Q1036 NOSIG
Conditions at: LIME (BERGAMO/ORIO SER, IT) observed 2220 UTC 23 February 2019
Temperature: 1.0°C (34°F)
Dewpoint: -4.0°C (25°F) [RH = 69%]
Pressure (altimeter): 30.59 inches Hg (1036.0 mb)
Winds: from the NNE (20 degrees) at 5 MPH (4 knots; 2.1 m/s)
Visibility: 6 or more miles (10+ km)
Ceiling: ceiling and visibility are OK
Clouds: unknown
Weather: no significant weather observed at this time

METAR text: LIME 232150Z 01004KT CAVOK 01/M04 Q1036 NOSIG
Conditions at: LIME (BERGAMO/ORIO SER, IT) observed 2150 UTC 23 February 2019
Temperature: 1.0°C (34°F)
Dewpoint: -4.0°C (25°F) [RH = 69%]
Pressure (altimeter): 30.59 inches Hg (1036.0 mb)
Winds: from the N (10 degrees) at 5 MPH (4 knots; 2.1 m/s)
Visibility: 6 or more miles (10+ km)
Ceiling: ceiling and visibility are OK
Clouds: unknown
Weather: no significant weather observed at this time

Forecast for: LIME (BERGAMO/ORIO SER, IT)
Text: TAF LIME 231700Z 2318/2418 14006KT CAVOK
Forecast period: 1800 UTC 23 February 2019 to 1800 UTC 24 February 2019
Forecast type: FROM: standard forecast or significant change
Winds: from the SE (140 degrees) at 7 MPH (6 knots; 3.1 m/s)
Visibility: 6 or more miles 10+ km)
Ceiling: unknown
Clouds: missing
Weather: NSW  (no significant weather)

 AIRPORT MAP

 RUNWAY INFORMATION
Runway 10 Runway length 9636 ft Runway width 148 ft
Runway elevation 779 ft Runway displaced threshold 312 ft Runway heading 105
Runway 28 Runway length 9636 ft Runway width 148 ft
Runway elevation 754 ft Runway displaced threshold 427 ft Runway heading 285
Runway 12 Runway length 2552 ft Runway width 59 ft
Runway elevation 782 ft Runway displaced threshold 210 ft Runway heading 121
Runway 30 Runway length 2552 ft Runway width 59 ft
Runway elevation 782 ft Runway displaced threshold 328 ft Runway heading 301

 AIRPORT FREQUENCIES
Type APP Name MILANO APP Frequency 126.75 MHZ
Type ATIS Name ATIS Frequency 112.6 MHZ
Type GND Name ORIO GND Frequency 120.5 MHZ
Type TWR Name ORIO TWR Frequency 126.5 MHZ

 AIRPORT NEAR NAVIGATION AIDS
Type VOR-DME Name Orio Al Serio Frequency 112600 KHZ
Type NDB Name Orio Al Serio Frequency 377 KHZ



Powered by Virtual Airlines Manager [v2.6.2]